yyyy.mm.dd HH:MM:SS,Pressure(dbar),SeaPressure(dbar),Depth(m)
2015.08.16 00:00:00,21.23,11.09,11.03
2015.08.16 01:00:00,21.19,11.06,10.99
2015.08.16 02:00:00,21.00,10.87,10.80
2015.08.16 03:00:00,20.69,10.56,10.50
2015.08.16 04:00:00,20.34,10.21,10.15
2015.08.16 05:00:00,20.05,9.91,9.85
2015.08.16 06:00:00,19.89,9.75,9.69
2015.08.16 07:00:00,19.88,9.75,9.69
2015.08.16 08:00:00,20.04,9.91,9.85
2015.08.16 09:00:00,20.31,10.18,10.11
2015.08.16 10:00:00,20.64,10.51,10.44
2015.08.16 11:00:00,20.93,10.80,10.73
2015.08.16 12:00:00,21.12,10.99,10.92
2015.08.16 13:00:00,21.15,11.01,10.95
2015.08.16 14:00:00,21.03,10.89,10.83
2015.08.16 15:00:00,20.78,10.65,10.58
2015.08.16 16:00:00,20.46,10.33,10.27
2015.08.16 17:00:00,20.17,10.04,9.98
2015.08.16 18:00:00,19.99,9.86,9.80
2015.08.16 19:00:00,19.96,9.83,9.77
2015.08.16 20:00:00,20.11,9.98,9.91
2015.08.16 21:00:00,20.36,10.23,10.17
2015.08.16 22:00:00,20.70,10.56,10.50
2015.08.16 23:00:00,21.00,10.87,10.80
2015.08.17 00:00:00,21.21,11.08,11.01
2015.08.17 01:00:00,21.26,11.13,11.06
2015.08.17 02:00:00,21.14,11.00,10.94
2015.08.17 03:00:00,20.88,10.75,10.69
2015.08.17 04:00:00,20.54,10.41,10.35
2015.08.17 05:00:00,20.20,10.07,10.00
2015.08.17 06:00:00,19.97,9.84,9.78
2015.08.17 07:00:00,19.87,9.73,9.68
2015.08.17 08:00:00,19.95,9.82,9.76
2015.08.17 09:00:00,20.15,10.02,9.96
2015.08.17 10:00:00,20.46,10.33,10.26
2015.08.17 11:00:00,20.77,10.64,10.57
2015.08.17 12:00:00,21.02,10.89,10.82
2015.08.17 13:00:00,21.12,10.99,10.92
2015.08.17 14:00:00,21.06,10.93,10.86
2015.08.17 15:00:00,20.86,10.73,10.66
2015.08.17 16:00:00,20.58,10.44,10.38
2015.08.17 17:00:00,20.24,10.11,10.04
2015.08.17 18:00:00,20.01,9.87,9.81
2015.08.17 19:00:00,19.88,9.75,9.69
2015.08.17 20:00:00,19.95,9.82,9.76
2015.08.17 21:00:00,20.15,10.01,9.95
2015.08.17 22:00:00,20.45,10.32,10.26
2015.08.17 23:00:00,20.78,10.64,10.58
2015.08.18 00:00:00,21.04,10.91,10.84
2015.08.18 01:00:00,21.17,11.03,10.97
2015.08.18 02:00:00,21.13,11.00,10.93
2015.08.18 03:00:00,20.96,10.83,10.76
2015.08.18 04:00:00,20.68,10.55,10.48
2015.08.18 05:00:00,20.35,10.22,10.15
2015.08.18 06:00:00,20.07,9.94,9.88
2015.08.18 07:00:00,19.92,9.79,9.73
2015.08.18 08:00:00,19.91,9.78,9.72
2015.08.18 09:00:00,20.06,9.93,9.87
2015.08.18 10:00:00,20.31,10.18,10.12
2015.08.18 11:00:00,20.61,10.48,10.41
2015.08.18 12:00:00,20.90,10.77,10.70
2015.08.18 13:00:00,21.07,10.94,10.87
2015.08.18 14:00:00,21.10,10.97,10.90
2015.08.18 15:00:00,20.98,10.85,10.78
2015.08.18 16:00:00,20.74,10.61,10.55
2015.08.18 17:00:00,20.44,10.31,10.25
2015.08.18 18:00:00,20.16,10.02,9.96
2015.08.18 19:00:00,19.99,9.86,9.79
2015.08.18 20:00:00,19.95,9.82,9.76
2015.08.18 21:00:00,20.08,9.95,9.89
2015.08.18 22:00:00,20.32,10.19,10.12
2015.08.18 23:00:00,20.63,10.50,10.44
2015.08.19 00:00:00,20.92,10.79,10.73
2015.08.19 01:00:00,21.13,11.00,10.93
2015.08.19 02:00:00,21.18,11.04,10.98
2015.08.19 03:00:00,21.08,10.95,10.88
2015.08.19 04:00:00,20.85,10.72,10.65
2015.08.19 05:00:00,20.56,10.43,10.37
2015.08.19 06:00:00,20.25,10.11,10.05
2015.08.19 07:00:00,20.05,9.92,9.86
2015.08.19 08:00:00,19.95,9.82,9.76
2015.08.19 09:00:00,20.04,9.91,9.85
2015.08.19 10:00:00,20.22,10.09,10.02
2015.08.19 11:00:00,20.49,10.36,10.30
2015.08.19 12:00:00,20.77,10.64,10.57
2015.08.19 13:00:00,20.99,10.85,10.79
2015.08.19 14:00:00,21.08,10.95,10.88
2015.08.19 15:00:00,21.03,10.90,10.83
2015.08.19 16:00:00,20.87,10.73,10.67
2015.08.19 17:00:00,20.60,10.47,10.40
2015.08.19 18:00:00,20.32,10.19,10.13
2015.08.19 19:00:00,20.10,9.97,9.91
2015.08.19 20:00:00,20.01,9.87,9.81
2015.08.19 21:00:00,20.03,9.90,9.84
2015.08.19 22:00:00,20.22,10.09,10.02
2015.08.19 23:00:00,20.46,10.33,10.27
2015.08.20 00:00:00,20.75,10.62,10.55
2015.08.20 01:00:00,21.00,10.87,10.80
2015.08.20 02:00:00,21.11,10.97,10.91
2015.08.20 03:00:00,21.09,10.96,10.89
2015.08.20 04:00:00,20.94,10.81,10.74
2015.08.20 05:00:00,20.70,10.57,10.51
2015.08.20 06:00:00,20.41,10.28,10.21
2015.08.20 07:00:00,20.17,10.04,9.98
2015.08.20 08:00:00,20.03,9.90,9.84
2015.08.20 09:00:00,20.03,9.90,9.84
2015.08.20 10:00:00,20.14,10.01,9.95
2015.08.20 11:00:00,20.36,10.23,10.16
2015.08.20 12:00:00,20.61,10.48,10.41
2015.08.20 13:00:00,20.85,10.72,10.65
2015.08.20 14:00:00,21.00,10.87,10.80
2015.08.20 15:00:00,21.02,10.89,10.82
2015.08.20 16:00:00,20.93,10.80,10.73
2015.08.20 17:00:00,20.73,10.60,10.54
2015.08.20 18:00:00,20.49,10.36,10.29
2015.08.20 19:00:00,20.25,10.12,10.05
2015.08.20 20:00:00,20.11,9.97,9.91
2015.08.20 21:00:00,20.06,9.93,9.87
2015.08.20 22:00:00,20.17,10.04,9.98
2015.08.20 23:00:00,20.36,10.23,10.17
2015.08.21 00:00:00,20.61,10.48,10.41
2015.08.21 01:00:00,20.85,10.71,10.65
2015.08.21 02:00:00,21.02,10.89,10.82
2015.08.21 03:00:00,21.07,10.94,10.87
2015.08.21 04:00:00,21.00,10.87,10.80
2015.08.21 05:00:00,20.83,10.70,10.63
2015.08.21 06:00:00,20.60,10.47,10.40
2015.08.21 07:00:00,20.36,10.23,10.17
2015.08.21 08:00:00,20.19,10.05,9.99
2015.08.21 09:00:00,20.12,9.99,9.92
2015.08.21 10:00:00,20.16,10.03,9.97
2015.08.21 11:00:00,20.31,10.18,10.12
2015.08.21 12:00:00,20.52,10.39,10.33
2015.08.21 13:00:00,20.74,10.61,10.55
2015.08.21 14:00:00,20.93,10.80,10.73
2015.08.21 15:00:00,21.02,10.88,10.82
2015.08.21 16:00:00,21.00,10.87,10.80
2015.08.21 17:00:00,20.88,10.74,10.68
2015.08.21 18:00:00,20.69,10.56,10.49
2015.08.21 19:00:00,20.47,10.33,10.27
2015.08.21 20:00:00,20.29,10.16,10.10
2015.08.21 21:00:00,20.19,10.05,9.99
2015.08.21 22:00:00,20.21,10.08,10.02
2015.08.21 23:00:00,20.31,10.18,10.12
2015.08.22 00:00:00,20.50,10.37,10.30
2015.08.22 01:00:00,20.69,10.56,10.49
2015.08.22 02:00:00,20.88,10.75,10.68
2015.08.22 03:00:00,20.99,10.85,10.79
2015.08.22 04:00:00,20.99,10.86,10.80
2015.08.22 05:00:00,20.90,10.77,10.70
2015.08.22 06:00:00,20.75,10.62,10.55
2015.08.22 07:00:00,20.54,10.41,10.34
2015.08.22 08:00:00,20.36,10.22,10.16
2015.08.22 09:00:00,20.24,10.11,10.04
2015.08.22 10:00:00,20.21,10.08,10.02
2015.08.22 11:00:00,20.28,10.15,10.08
2015.08.22 12:00:00,20.41,10.28,10.22
2015.08.22 13:00:00,20.60,10.47,10.40
2015.08.22 14:00:00,20.78,10.65,10.58
2015.08.22 15:00:00,20.93,10.80,10.73
2015.08.22 16:00:00,20.98,10.85,10.78
2015.08.22 17:00:00,20.95,10.81,10.75
2015.08.22 18:00:00,20.83,10.70,10.63
2015.08.22 19:00:00,20.67,10.54,10.47
2015.08.22 20:00:00,20.48,10.35,10.29
2015.08.22 21:00:00,20.36,10.23,10.16
2015.08.22 22:00:00,20.29,10.15,10.09
2015.08.22 23:00:00,20.32,10.19,10.13
2015.08.23 00:00:00,20.41,10.28,10.21
2015.08.23 01:00:00,20.57,10.43,10.37
2015.08.23 02:00:00,20.72,10.59,10.53
2015.08.23 03:00:00,20.86,10.73,10.67
2015.08.23 04:00:00,20.93,10.79,10.73
2015.08.23 05:00:00,20.91,10.78,10.71
2015.08.23 06:00:00,20.82,10.68,10.62
2015.08.23 07:00:00,20.67,10.54,10.48
2015.08.23 08:00:00,20.50,10.37,10.31
2015.08.23 09:00:00,20.36,10.23,10.16
2015.08.23 10:00:00,20.26,10.13,10.07
2015.08.23 11:00:00,20.25,10.11,10.05
2015.08.23 12:00:00,20.30,10.17,10.11
2015.08.23 13:00:00,20.42,10.29,10.23
2015.08.23 14:00:00,20.57,10.43,10.37
2015.08.23 15:00:00,20.71,10.58,10.52
2015.08.23 16:00:00,20.82,10.69,10.62
2015.08.23 17:00:00,20.85,10.72,10.65
2015.08.23 18:00:00,20.82,10.69,10.62
2015.08.23 19:00:00,20.72,10.59,10.52
2015.08.23 20:00:00,20.59,10.46,10.39
2015.08.23 21:00:00,20.44,10.30,10.24
2015.08.23 22:00:00,20.33,10.20,10.14
2015.08.23 23:00:00,20.26,10.13,10.06
2015.08.24 00:00:00,20.29,10.16,10.10
2015.08.24 01:00:00,20.34,10.21,10.14
2015.08.24 02:00:00,20.48,10.35,10.29
2015.08.24 03:00:00,20.59,10.46,10.39
2015.08.24 04:00:00,20.73,10.60,10.54
2015.08.24 05:00:00,20.79,10.66,10.59
2015.08.24 06:00:00,20.81,10.68,10.62
2015.08.24 07:00:00,20.76,10.62,10.56
2015.08.24 08:00:00,20.66,10.52,10.46
2015.08.24 09:00:00,20.51,10.38,10.32
2015.08.24 10:00:00,20.39,10.25,10.19
2015.08.24 11:00:00,20.30,10.16,10.10
2015.08.24 12:00:00,20.28,10.14,10.08
2015.08.24 13:00:00,20.31,10.18,10.11
2015.08.24 14:00:00,20.41,10.28,10.21
2015.08.24 15:00:00,20.53,10.40,10.34
2015.08.24 16:00:00,20.67,10.54,10.47
2015.08.24 17:00:00,20.78,10.65,10.58
2015.08.24 18:00:00,20.84,10.71,10.64
2015.08.24 19:00:00,20.84,10.70,10.64
2015.08.24 20:00:00,20.77,10.64,10.57
2015.08.24 21:00:00,20.65,10.52,10.46
2015.08.24 22:00:00,20.51,10.38,10.31
2015.08.24 23:00:00,20.38,10.25,10.19
2015.08.25 00:00:00,20.28,10.15,10.09
2015.08.25 01:00:00,20.27,10.14,10.07
2015.08.25 02:00:00,20.30,10.17,10.11
2015.08.25 03:00:00,20.40,10.26,10.20
2015.08.25 04:00:00,20.52,10.38,10.32
2015.08.25 05:00:00,20.65,10.52,10.46
2015.08.25 06:00:00,20.74,10.60,10.54
2015.08.25 07:00:00,20.78,10.65,10.59
2015.08.25 08:00:00,20.75,10.62,10.55
2015.08.25 09:00:00,20.66,10.53,10.47
2015.08.25 10:00:00,20.53,10.40,10.34
2015.08.25 11:00:00,20.40,10.26,10.20
2015.08.25 12:00:00,20.29,10.16,10.10
2015.08.25 13:00:00,20.23,10.09,10.03
2015.08.25 14:00:00,20.24,10.11,10.05
2015.08.25 15:00:00,20.33,10.19,10.13
2015.08.25 16:00:00,20.46,10.33,10.27
2015.08.25 17:00:00,20.61,10.48,10.41
2015.08.25 18:00:00,20.76,10.63,10.56
2015.08.25 19:00:00,20.86,10.73,10.67
2015.08.25 20:00:00,20.88,10.75,10.69
2015.08.25 21:00:00,20.83,10.70,10.64
2015.08.25 22:00:00,20.71,10.58,10.51
2015.08.25 23:00:00,20.55,10.42,10.36
2015.08.26 00:00:00,20.39,10.26,10.19
2015.08.26 01:00:00,20.26,10.13,10.06
2015.08.26 02:00:00,20.20,10.06,10.00
2015.08.26 03:00:00,20.22,10.09,10.03
2015.08.26 04:00:00,20.31,10.17,10.11
2015.08.26 05:00:00,20.45,10.32,10.25
2015.08.26 06:00:00,20.61,10.48,10.41
2015.08.26 07:00:00,20.75,10.62,10.56
2015.08.26 08:00:00,20.84,10.71,10.64
2015.08.26 09:00:00,20.83,10.70,10.64
2015.08.26 10:00:00,20.75,10.62,10.55
2015.08.26 11:00:00,20.61,10.48,10.41
2015.08.26 12:00:00,20.42,10.29,10.23
2015.08.26 13:00:00,20.28,10.15,10.08
2015.08.26 14:00:00,20.17,10.04,9.98
2015.08.26 15:00:00,20.17,10.03,9.97
2015.08.26 16:00:00,20.24,10.11,10.05
2015.08.26 17:00:00,20.41,10.27,10.21
2015.08.26 18:00:00,20.60,10.46,10.40
2015.08.26 19:00:00,20.80,10.66,10.60
2015.08.26 20:00:00,20.93,10.79,10.73
2015.08.26 21:00:00,20.96,10.83,10.76
2015.08.26 22:00:00,20.90,10.76,10.70
2015.08.26 23:00:00,20.73,10.60,10.54
2015.08.27 00:00:00,20.52,10.39,10.33
2015.08.27 01:00:00,20.30,10.17,10.11
2015.08.27 02:00:00,20.12,9.98,9.92
2015.08.27 03:00:00,20.03,9.90,9.84
2015.08.27 04:00:00,20.05,9.91,9.85
2015.08.27 05:00:00,20.18,10.04,9.98
2015.08.27 06:00:00,20.36,10.23,10.17
2015.08.27 07:00:00,20.58,10.45,10.39
2015.08.27 08:00:00,20.78,10.65,10.58
2015.08.27 09:00:00,20.89,10.75,10.69
2015.08.27 10:00:00,20.88,10.75,10.69
2015.08.27 11:00:00,20.79,10.66,10.59
2015.08.27 12:00:00,20.59,10.46,10.39
2015.08.27 13:00:00,20.38,10.24,10.18
2015.08.27 14:00:00,20.16,10.03,9.96
2015.08.27 15:00:00,20.06,9.92,9.86
2015.08.27 16:00:00,20.04,9.90,9.84
2015.08.27 17:00:00,20.16,10.03,9.97
2015.08.27 18:00:00,20.36,10.23,10.17
2015.08.27 19:00:00,20.63,10.49,10.43
2015.08.27 20:00:00,20.87,10.74,10.67
2015.08.27 21:00:00,21.04,10.90,10.84
2015.08.27 22:00:00,21.06,10.93,10.86
2015.08.27 23:00:00,20.98,10.84,10.78
2015.08.28 00:00:00,20.76,10.63,10.56
2015.08.28 01:00:00,20.48,10.35,10.29
2015.08.28 02:00:00,20.19,10.06,10.00
2015.08.28 03:00:00,19.99,9.86,9.80
2015.08.28 04:00:00,19.90,9.77,9.71
2015.08.28 05:00:00,19.96,9.83,9.77
2015.08.28 06:00:00,20.13,10.00,9.94
2015.08.28 07:00:00,20.39,10.26,10.20
2015.08.28 08:00:00,20.68,10.54,10.48
2015.08.28 09:00:00,20.91,10.78,10.71
2015.08.28 10:00:00,21.02,10.89,10.82
2015.08.28 11:00:00,21.00,10.87,10.80
2015.08.28 12:00:00,20.84,10.71,10.65
2015.08.28 13:00:00,20.59,10.46,10.39
2015.08.28 14:00:00,20.29,10.16,10.10
2015.08.28 15:00:00,20.05,9.92,9.86
2015.08.28 16:00:00,19.92,9.79,9.73
2015.08.28 17:00:00,19.93,9.80,9.74
2015.08.28 18:00:00,20.10,9.97,9.91
2015.08.28 19:00:00,20.37,10.23,10.17
2015.08.28 20:00:00,20.69,10.56,10.50
2015.08.28 21:00:00,20.97,10.84,10.77
2015.08.28 22:00:00,21.16,11.02,10.96
2015.08.28 23:00:00,21.16,11.02,10.96
2015.08.29 00:00:00,21.01,10.88,10.81
2015.08.29 01:00:00,20.73,10.60,10.54
2015.08.29 02:00:00,20.37,10.24,10.18
2015.08.29 03:00:00,20.05,9.92,9.86
2015.08.29 04:00:00,19.83,9.70,9.64
2015.08.29 05:00:00,19.77,9.64,9.58
2015.08.29 06:00:00,19.87,9.74,9.68
2015.08.29 07:00:00,20.14,10.01,9.95
2015.08.29 08:00:00,20.47,10.34,10.27
2015.08.29 09:00:00,20.82,10.69,10.62
2015.08.29 10:00:00,21.06,10.93,10.86
2015.08.29 11:00:00,21.16,11.03,10.96
2015.08.29 12:00:00,21.08,10.95,10.88
2015.08.29 13:00:00,20.86,10.73,10.66
2015.08.29 14:00:00,20.52,10.38,10.32
2015.08.29 15:00:00,20.17,10.04,9.98
2015.08.29 16:00:00,19.92,9.78,9.72
2015.08.29 17:00:00,19.80,9.66,9.60
2015.08.29 18:00:00,19.87,9.74,9.68
2015.08.29 19:00:00,20.09,9.96,9.90
2015.08.29 20:00:00,20.45,10.32,10.25
2015.08.29 21:00:00,20.82,10.69,10.62
2015.08.29 22:00:00,21.13,11.00,10.93
2015.08.29 23:00:00,21.28,11.15,11.08
2015.08.30 00:00:00,21.23,11.10,11.03
2015.08.30 01:00:00,21.02,10.88,10.82
2015.08.30 02:00:00,20.66,10.53,10.46
2015.08.30 03:00:00,20.24,10.11,10.04
2015.08.30 04:00:00,19.90,9.76,9.70
2015.08.30 05:00:00,19.68,9.54,9.49
2015.08.30 06:00:00,19.66,9.53,9.47
2015.08.30 07:00:00,19.83,9.70,9.64
2015.08.30 08:00:00,20.15,10.02,9.96
2015.08.30 09:00:00,20.54,10.41,10.34
2015.08.30 10:00:00,20.92,10.79,10.72
2015.08.30 11:00:00,21.15,11.02,10.95
2015.08.30 12:00:00,21.22,11.09,11.02
2015.08.30 13:00:00,21.08,10.95,10.88
2015.08.30 14:00:00,20.80,10.67,10.60
2015.08.30 15:00:00,20.41,10.28,10.21
2015.08.30 16:00:00,20.04,9.91,9.85
2015.08.30 17:00:00,19.79,9.65,9.59
2015.08.30 18:00:00,19.71,9.58,9.52
2015.08.30 19:00:00,19.84,9.71,9.65
2015.08.30 20:00:00,20.14,10.01,9.94
2015.08.30 21:00:00,20.55,10.41,10.35
2015.08.30 22:00:00,20.96,10.83,10.76
2015.08.30 23:00:00,21.26,11.13,11.06
2015.08.31 00:00:00,21.37,11.24,11.17
2015.08.31 01:00:00,21.28,11.14,11.08
2015.08.31 02:00:00,20.99,10.86,10.79
2015.08.31 03:00:00,20.58,10.45,10.39
2015.08.31 04:00:00,20.12,9.99,9.93
2015.08.31 05:00:00,19.79,9.66,9.60
2015.08.31 06:00:00,19.60,9.47,9.41
2015.08.31 07:00:00,19.66,9.53,9.47
2015.08.31 08:00:00,19.88,9.75,9.69
2015.08.31 09:00:00,20.26,10.13,10.07
2015.08.31 10:00:00,20.70,10.56,10.50
2015.08.31 11:00:00,21.06,10.93,10.86
2015.08.31 12:00:00,21.28,11.15,11.08
2015.08.31 13:00:00,21.27,11.14,11.07
2015.08.31 14:00:00,21.09,10.96,10.89
2015.08.31 15:00:00,20.76,10.63,10.56
2015.08.31 16:00:00,20.33,10.20,10.14
2015.08.31 17:00:00,19.99,9.85,9.79
2015.08.31 18:00:00,19.76,9.63,9.57
2015.08.31 19:00:00,19.76,9.63,9.57
2015.08.31 20:00:00,19.95,9.82,9.76
2015.08.31 21:00:00,20.30,10.16,10.10
2015.08.31 22:00:00,20.75,10.62,10.55
2015.08.31 23:00:00,21.15,11.02,10.95
2015.09.01 00:00:00,21.41,11.28,11.21
2015.09.01 01:00:00,21.46,11.33,11.26
2015.09.01 02:00:00,21.30,11.17,11.10
2015.09.01 03:00:00,20.97,10.83,10.77
2015.09.01 04:00:00,20.52,10.39,10.32
2015.09.01 05:00:00,20.08,9.95,9.89
2015.09.01 06:00:00,19.79,9.66,9.60
2015.09.01 07:00:00,19.67,9.54,9.48
2015.09.01 08:00:00,19.79,9.65,9.59
2015.09.01 09:00:00,20.06,9.93,9.87
2015.09.01 10:00:00,20.47,10.33,10.27
2015.09.01 11:00:00,20.89,10.76,10.69
2015.09.01 12:00:00,21.22,11.09,11.02
2015.09.01 13:00:00,21.37,11.24,11.17
2015.09.01 14:00:00,21.33,11.19,11.12
2015.09.01 15:00:00,21.09,10.96,10.89
2015.09.01 16:00:00,20.73,10.60,10.54
2015.09.01 17:00:00,20.30,10.17,10.10
2015.09.01 18:00:00,19.99,9.85,9.79
2015.09.01 19:00:00,19.81,9.67,9.62
2015.09.01 20:00:00,19.86,9.73,9.67
2015.09.01 21:00:00,20.09,9.96,9.90
2015.09.01 22:00:00,20.46,10.33,10.26
2015.09.01 23:00:00,20.90,10.76,10.70
2015.09.02 00:00:00,21.25,11.11,11.05
2015.09.02 01:00:00,21.45,11.32,11.25
2015.09.02 02:00:00,21.43,11.29,11.23
2015.09.02 03:00:00,21.23,11.10,11.03
2015.09.02 04:00:00,20.86,10.73,10.66
2015.09.02 05:00:00,20.43,10.30,10.23
2015.09.02 06:00:00,20.03,9.90,9.83
2015.09.02 07:00:00,19.80,9.67,9.61
2015.09.02 08:00:00,19.73,9.60,9.54
2015.09.02 09:00:00,19.89,9.76,9.70
2015.09.02 10:00:00,20.18,10.04,9.98
2015.09.02 11:00:00,20.58,10.45,10.38
2015.09.02 12:00:00,20.96,10.83,10.76
2015.09.02 13:00:00,21.23,11.10,11.03
2015.09.02 14:00:00,21.31,11.18,11.11
2015.09.02 15:00:00,21.21,11.08,11.01
2015.09.02 16:00:00,20.95,10.82,10.75
2015.09.02 17:00:00,20.58,10.45,10.38
2015.09.02 18:00:00,20.20,10.07,10.00
2015.09.02 19:00:00,19.93,9.80,9.74
2015.09.02 20:00:00,19.82,9.68,9.62
2015.09.02 21:00:00,19.90,9.77,9.71
2015.09.02 22:00:00,20.15,10.02,9.96
2015.09.02 23:00:00,20.52,10.39,10.32
2015.09.03 00:00:00,20.90,10.76,10.70
2015.09.03 01:00:00,21.20,11.07,11.00
2015.09.03 02:00:00,21.32,11.19,11.12
2015.09.03 03:00:00,21.28,11.14,11.07
2015.09.03 04:00:00,21.04,10.91,10.84
2015.09.03 05:00:00,20.71,10.57,10.51
2015.09.03 06:00:00,20.29,10.16,10.10
2015.09.03 07:00:00,19.99,9.86,9.80
2015.09.03 08:00:00,19.81,9.67,9.61
2015.09.03 09:00:00,19.82,9.68,9.62
2015.09.03 10:00:00,19.99,9.85,9.79
2015.09.03 11:00:00,20.28,10.15,10.08
2015.09.03 12:00:00,20.63,10.50,10.43
2015.09.03 13:00:00,20.95,10.82,10.75
2015.09.03 14:00:00,21.15,11.02,10.95
2015.09.03 15:00:00,21.18,11.04,10.98
2015.09.03 16:00:00,21.05,10.92,10.85
2015.09.03 17:00:00,20.79,10.65,10.59
2015.09.03 18:00:00,20.45,10.32,10.25
2015.09.03 19:00:00,20.13,10.00,9.94
2015.09.03 20:00:00,19.94,9.80,9.74
2015.09.03 21:00:00,19.88,9.75,9.69
2015.09.03 22:00:00,20.00,9.87,9.81
2015.09.03 23:00:00,20.24,10.11,10.04
2015.09.04 00:00:00,20.58,10.44,10.38
2015.09.04 01:00:00,20.90,10.76,10.70
2015.09.04 02:00:00,21.13,11.00,10.93
2015.09.04 03:00:00,21.21,11.07,11.00
2015.09.04 04:00:00,21.12,10.99,10.92
2015.09.04 05:00:00,20.91,10.78,10.71
2015.09.04 06:00:00,20.60,10.47,10.40
2015.09.04 07:00:00,20.27,10.14,10.07
2015.09.04 08:00:00,20.04,9.90,9.84
2015.09.04 09:00:00,19.92,9.79,9.73
2015.09.04 10:00:00,19.97,9.84,9.78
2015.09.04 11:00:00,20.14,10.00,9.94
2015.09.04 12:00:00,20.40,10.27,10.21
2015.09.04 13:00:00,20.69,10.55,10.49
2015.09.04 14:00:00,20.94,10.81,10.74
2015.09.04 15:00:00,21.07,10.93,10.87
2015.09.04 16:00:00,21.06,10.93,10.86
2015.09.04 17:00:00,20.92,10.79,10.72
2015.09.04 18:00:00,20.70,10.57,10.50
2015.09.04 19:00:00,20.40,10.27,10.21
2015.09.04 20:00:00,20.17,10.03,9.97
2015.09.04 21:00:00,20.00,9.87,9.81
2015.09.04 22:00:00,19.99,9.86,9.80
2015.09.04 23:00:00,20.09,9.96,9.90
2015.09.05 00:00:00,20.31,10.18,10.11
2015.09.05 01:00:00,20.56,10.43,10.36
2015.09.05 02:00:00,20.82,10.69,10.62
2015.09.05 03:00:00,20.98,10.85,10.79
2015.09.05 04:00:00,21.03,10.90,10.83
2015.09.05 05:00:00,20.95,10.82,10.75
2015.09.05 06:00:00,20.78,10.65,10.58
2015.09.05 07:00:00,20.53,10.40,10.33
2015.09.05 08:00:00,20.29,10.16,10.09
2015.09.05 09:00:00,20.12,9.99,9.93
2015.09.05 10:00:00,20.05,9.92,9.86
2015.09.05 11:00:00,20.11,9.98,9.92
2015.09.05 12:00:00,20.26,10.12,10.06
2015.09.05 13:00:00,20.47,10.34,10.28
2015.09.05 14:00:00,20.70,10.56,10.50
2015.09.05 15:00:00,20.89,10.76,10.69
2015.09.05 16:00:00,20.98,10.84,10.78
2015.09.05 17:00:00,20.96,10.83,10.76
2015.09.05 18:00:00,20.84,10.71,10.64
2015.09.05 19:00:00,20.66,10.53,10.46
2015.09.05 20:00:00,20.43,10.30,10.23
2015.09.05 21:00:00,20.24,10.11,10.05
2015.09.05 22:00:00,20.12,9.99,9.93
2015.09.05 23:00:00,20.11,9.98,9.92
2015.09.06 00:00:00,20.18,10.05,9.99
2015.09.06 01:00:00,20.35,10.22,10.16
2015.09.06 02:00:00,20.54,10.41,10.34
2015.09.06 03:00:00,20.74,10.61,10.54
2015.09.06 04:00:00,20.87,10.73,10.67
2015.09.06 05:00:00,20.91,10.78,10.72
2015.09.06 06:00:00,20.86,10.73,10.67
2015.09.06 07:00:00,20.75,10.62,10.55
2015.09.06 08:00:00,20.57,10.44,10.38
2015.09.06 09:00:00,20.40,10.27,10.20
2015.09.06 10:00:00,20.27,10.14,10.08
2015.09.06 11:00:00,20.23,10.10,10.03
2015.09.06 12:00:00,20.27,10.13,10.07
2015.09.06 13:00:00,20.37,10.24,10.18
2015.09.06 14:00:00,20.53,10.39,10.33
2015.09.06 15:00:00,20.70,10.57,10.50
2015.09.06 16:00:00,20.84,10.71,10.65
2015.09.06 17:00:00,20.92,10.79,10.73
2015.09.06 18:00:00,20.91,10.78,10.71
2015.09.06 19:00:00,20.84,10.71,10.64
2015.09.06 20:00:00,20.70,10.56,10.50
2015.09.06 21:00:00,20.52,10.39,10.33
2015.09.06 22:00:00,20.37,10.24,10.17
2015.09.06 23:00:00,20.25,10.12,10.05
2015.09.07 00:00:00,20.22,10.08,10.02
2015.09.07 01:00:00,20.24,10.11,10.05
2015.09.07 02:00:00,20.35,10.22,10.16
2015.09.07 03:00:00,20.49,10.36,10.29
2015.09.07 04:00:00,20.65,10.52,10.45
2015.09.07 05:00:00,20.78,10.64,10.58
2015.09.07 06:00:00,20.85,10.71,10.65
2015.09.07 07:00:00,20.84,10.71,10.64
2015.09.07 08:00:00,20.78,10.64,10.58
2015.09.07 09:00:00,20.67,10.53,10.47
2015.09.07 10:00:00,20.51,10.38,10.32
2015.09.07 11:00:00,20.39,10.26,10.20
2015.09.07 12:00:00,20.32,10.19,10.12
2015.09.07 13:00:00,20.31,10.18,10.11
2015.09.07 14:00:00,20.36,10.23,10.17
2015.09.07 15:00:00,20.48,10.34,10.28
2015.09.07 16:00:00,20.61,10.48,10.42
2015.09.07 17:00:00,20.76,10.63,10.56
2015.09.07 18:00:00,20.85,10.72,10.65
2015.09.07 19:00:00,20.87,10.74,10.67
2015.09.07 20:00:00,20.83,10.70,10.63
2015.09.07 21:00:00,20.71,10.58,10.51
2015.09.07 22:00:00,20.55,10.42,10.35
2015.09.07 23:00:00,20.39,10.25,10.19
2015.09.08 00:00:00,20.25,10.12,10.06
2015.09.08 01:00:00,20.17,10.04,9.98
2015.09.08 02:00:00,20.15,10.02,9.96
2015.09.08 03:00:00,20.23,10.10,10.03
2015.09.08 04:00:00,20.34,10.21,10.14
2015.09.08 05:00:00,20.50,10.37,10.31
2015.09.08 06:00:00,20.65,10.52,10.45
2015.09.08 07:00:00,20.77,10.63,10.57
2015.09.08 08:00:00,20.80,10.66,10.60
2015.09.08 09:00:00,20.77,10.64,10.58
2015.09.08 10:00:00,20.66,10.53,10.46
2015.09.08 11:00:00,20.53,10.40,10.33
2015.09.08 12:00:00,20.39,10.25,10.19
2015.09.08 13:00:00,20.29,10.15,10.09
2015.09.08 14:00:00,20.25,10.12,10.06
2015.09.08 15:00:00,20.28,10.15,10.08
2015.09.08 16:00:00,20.39,10.26,10.20
2015.09.08 17:00:00,20.53,10.40,10.33
2015.09.08 18:00:00,20.71,10.57,10.51
2015.09.08 19:00:00,20.84,10.71,10.64
2015.09.08 20:00:00,20.91,10.78,10.72
2015.09.08 21:00:00,20.90,10.77,10.70
2015.09.08 22:00:00,20.81,10.67,10.61
2015.09.08 23:00:00,20.65,10.52,10.45
2015.09.09 00:00:00,20.46,10.33,10.27
2015.09.09 01:00:00,20.31,10.17,10.11
2015.09.09 02:00:00,20.18,10.05,9.99
2015.09.09 03:00:00,20.17,10.03,9.97
2015.09.09 04:00:00,20.20,10.07,10.01
2015.09.09 05:00:00,20.35,10.22,10.16
2015.09.09 06:00:00,20.51,10.38,10.32
2015.09.09 07:00:00,20.71,10.58,10.51
2015.09.09 08:00:00,20.83,10.70,10.63
2015.09.09 09:00:00,20.90,10.76,10.70
2015.09.09 10:00:00,20.86,10.73,10.67
2015.09.09 11:00:00,20.75,10.62,10.55
2015.09.09 12:00:00,20.59,10.46,10.39
2015.09.09 13:00:00,20.41,10.28,10.22
2015.09.09 14:00:00,20.28,10.15,10.08
2015.09.09 15:00:00,20.21,10.08,10.02
2015.09.09 16:00:00,20.26,10.12,10.06
2015.09.09 17:00:00,20.36,10.22,10.16
2015.09.09 18:00:00,20.57,10.43,10.37
2015.09.09 19:00:00,20.75,10.61,10.55
2015.09.09 20:00:00,20.94,10.81,10.74
2015.09.09 21:00:00,21.01,10.88,10.81
2015.09.09 22:00:00,21.00,10.87,10.80
2015.09.09 23:00:00,20.88,10.75,10.68
